Flag for United Kingdom Weather past 2 weeks in Chester, England, United Kingdom

Now
45 °F

Scattered clouds.


Feels Like: 36 °F
Forecast: 38 / 44 °F
Wind: 22 mph from West

Location: Hawarden Airport

Current Time: Mar 2, 2015 at 1:11:24 PM

Latest Report: Mar 2, 2015 at 12:20 PM


Visibility: N/A

Pressure: 29.68 "Hg

Humidity: 57%

Dew point: 30 °F

Location of ChesterLocation

Historic Weather in Chester — Graph

°F

Chester temperature yesterday

Maximum temperature yesterday: 48 °F (at 10:50 AM)
Minimum temperature yesterday: 37 °F (at 5:50 PM)
Average temperature yesterday: 43 °F

Past Weeks' High & Low Weather Summary

 TemperatureHumidityPressure
High55 °F (Feb 26, 6:50 AM)100% (Feb 16, 8:20 AM)30.69 "Hg (Feb 16, 8:20 AM)
Low32 °F (Feb 27, 6:50 AM)53% (Feb 23, 1:50 PM)29.03 "Hg (Feb 23, 5:20 PM)
Average45 °F77%29.83 "Hg
* Reported Feb 15 11:20 AM — Mar 2 11:50 AM, Chester, Weather by CustomWeather, © 2015

Note: Actual official high and low records may vary slightly from our data, if they occured in-between our weather recording intervals... More about our weather records

Advertising

Chester weather history for previous 24 hours

 ConditionsComfort  
Time TempWeatherWind HumidityBarometerVisibility
11:50 AM
Mon, Mar 2
43 °FScattered clouds.18 mph61%29.68 "HgN/A
11:20 AM45 °FScattered showers. Scattered clouds.24 mph57%29.65 "HgN/A
10:50 AM43 °FPassing clouds.28 mph61%29.62 "HgN/A
10:20 AM41 °FPassing clouds.23 mph70%29.62 "HgN/A
9:50 AM39 °FScattered clouds.22 mph70%29.59 "HgN/A
9:20 AM41 °FScattered clouds.17 mph61%29.56 "HgN/A
8:50 AM39 °FScattered clouds.18 mph65%29.56 "HgN/A
8:20 AM39 °FScattered showers. Scattered clouds.7 mph70%29.56 "HgN/A
7:50 AM37 °FScattered showers. Scattered clouds.14 mph81%29.53 "HgN/A
7:20 AM39 °FScattered showers. Passing clouds.13 mph65%29.50 "HgN/A
6:50 AM39 °FScattered showers. Passing clouds.8 mph70%29.50 "HgN/A
6:20 AM41 °FPassing clouds.15 mph70%29.50 "HgN/A
5:50 PM
Sun, Mar 1
37 °FPassing clouds.6 mph81%29.39 "HgN/A
5:20 PM39 °FScattered clouds.12 mph87%29.36 "HgN/A
4:50 PM39 °FScattered clouds.15 mph87%29.33 "HgN/A
4:20 PM39 °FPartly sunny.7 mph87%29.30 "HgN/A
3:50 PM41 °FSprinkles. Partly sunny.15 mph87%29.30 "HgN/A
3:20 PM45 °FScattered showers. Scattered clouds.12 mph81%29.30 "HgN/A
2:50 PM43 °FLight rain. Scattered clouds.15 mph87%29.30 "HgN/A
2:20 PM41 °FLight rain. Partly sunny.15 mph87%29.36 "HgN/A
1:50 PM41 °FLight rain. Partly sunny.13 mph93%29.39 "Hg6 mi
1:20 PM41 °FRain showers. Partly sunny.14 mph87%29.42 "Hg6 mi
Weather by CustomWeather, © 2015

See weather overviewHow to use our weather pages